Location: Lavington
(51.2833°N, 1.9833°W)
Time: 18:16:48
(UTC+00:00)

USA 238 - Pass Details

Date: 01 June 2020
Orbit: 1014 x 1198 km, 63.4° (Epoch: 02 June)

Event Time Altitude Azimuth Distance (km) Brightness Sun altitude
Rises 22:10:32 0° 315° (NW) 3,940 8.2 -12.3°
Reaches altitude 10° 22:13:13 10° 311° (NW) 3,005 7.2 -12.4°
Maximum altitude 22:20:14 58° 235° (SW) 1,331 4.1 -12.9°
Enters shadow 22:25:56 17° 162° (SSE) 2,584 5.1 -13.3°
